Terminal Aerodrome Forecast
Issued by NWS

Home | Current Version | Previous Version | Text Only | Print | Product List | Glossary On
Versions: 1 2 3 4 5 6 7 8 9 10 11 12 13 14 15 16 17 18 19 20 21 22 23 24 25 26 27
000
FTUS44 KLIX 112100 AAA
TAFHUM
TAF AMD
KHUM 112142Z 1122/1218 VRB05KT P6SM VCTS SCT035CB BKN050
      TEMPO 1122/1124 VRB35KT 1 1/2SM TSRA SCT022 BKN035CB
     FM120300 26004KT P6SM SCT060
     FM121000 32006KT P6SM SCT200=

USA.gov is the U.S. government's official web portal to all federal, state and local government web resources and services.